Location: Wingville
(42.9917°N, 90.4915°W)
Time: 08:32:08
(UTC+00:00)

X-37B - Visible Passes

Search period start: 29 January 2022 00:00
Search period end: 08 February 2022 00:00
Orbit: 331 x 339 km, 45.0° (Epoch: 27 January)

Date Brightness Start Highest point End Pass type
(mag) Time Alt. Az. Time Alt. Az. Time Alt. Az.
29 Jan 1.3 00:00:03 10° SW 00:02:39 35° SSE 00:04:31 16° E visible
29 Jan 3.7 01:35:15 10° W 01:35:45 14° W 01:35:45 14° W visible
30 Jan 0.2 00:20:13 10° WSW 00:23:01 77° SSE 00:24:10 32° E visible
31 Jan 0.3 00:40:42 10° W 00:43:30 64° N 00:43:47 58° NNE visible
01 Feb 1.4 01:01:16 10° W 01:03:23 40° NW 01:03:23 40° NW visible
01 Feb 0.4 23:46:08 10° W 23:48:57 64° N 23:51:45 10° ENE visible
02 Feb 2.8 01:21:48 10° WNW 01:23:00 22° WNW 01:23:00 22° WNW visible
03 Feb 0.6 00:06:43 10° W 00:09:30 52° N 00:11:24 18° ENE visible
03 Feb 3.8 01:42:16 10° WNW 01:42:38 13° WNW 01:42:38 13° WNW visible
04 Feb 0.4 00:27:14 10° WNW 00:30:03 60° N 00:31:04 33° ENE visible
05 Feb 0.1 00:47:43 10° WNW 00:50:32 86° SSW 00:50:48 71° ESE visible
06 Feb 1.5 01:08:15 10° W 01:10:37 39° SW 01:10:37 39° SW visible
06 Feb 0.3 23:53:09 10° WNW 23:55:59 87° SSW 23:58:48 10° ESE visible
07 Feb 3.1 01:29:09 10° W 01:30:34 17° SW 01:30:34 17° SW visible
